COSMOS 252 DEB *, 18648

Orbit data source: Space-Track

COSMOS 252 DEB *, 18648 is space debris in LEO originally from a launch on Fri, 01 Nov 1968 UTC launched from the Tyuratam Missile And Space Complex (TTMTR). Debris objects in space refer to the collection of defunct objects orbiting the Earth. Examples of debris include non-operational satellites, rocket bodies, and fragments generated from explosions, collisions, or faulty payload assembly.

Loading next visibility...
Identifier
18648, 1968-097ED
Orbit
LEO
Country
Flag of CISCIS
Related business
Manufacturer
Unknown
Mission
Spacecraft
Bus & Motor
Unknown
Mass
Unknown
Launch date (UTC)
1968-11-01 (57 years ago)
Launch vehicle
Unknown
Launch site
Tyuratam Missile And Space Complex (TTMTR)
Object type
Payload
Rocket body
Debris
Shape & HBR
Unknown shape, 1.1 m
Radar Cross Section
Small (<0.1 m²)

Expand to show TLE details & history
Last TLE update: 18 hours ago

TLE from 18 hours ago
0 COSMOS 252 DEB *
1 18648U 68097ED  25287.74045000  .00001912  00000-0  16888-2 0  9997
2 18648  62.2192 183.1718 0537109 293.1049  61.4223 13.36540268622740
Epoch: 2025-10-14T17:46Z
TLE epoch observation values (Epoch: 2025-10-14T17:46:14.880Z)
Latitude
0.00001°
Longitude
-106.91473°
Altitude
948.475 km
Speed
7.464 km/s
True Right ascension
12h 12m 41s
True Declination
0° 00' 00"
Sunlit
Object was in daylight at epoch
Visualization orbit readout
Latitude
Unknown
Longitude
Unknown
Altitude
Unknown
Speed
Unknown
Apparent Right ascension
Unknown
Apparent Declination
Unknown
Sunlit
N/A
Visualization observer readout
Local Sidereal Time
06:51:00
Azimuth
Unknown
Elevation
Unknown
Doppler factor
Unknown
Orbital elements
Apogee altitude
1,523.967 km
Perigee altitude
718.378 km
Semi-major axis
7,499.31 km
Eccentricity
0.05371
Inclination
62.2192°
RAAN
183.1718°
Arg. of periapsis
293.1049°
True anomaly
66.99752°
Mean anomaly
61.4223°
Eccentric anomaly
64.19278°
Mean motion
3.34204 °/min
Orbital period
107.72 mins
BSTAR
0.0016888
Loading maneuver chart data...
Computing Atmospheric mass density...
Loading historical data...
Loading historical data...
Loading historical data...
Loading historical data...
Loading historical data...
Loading historical data...
Loading historical data...

Documentation

Showing up to 5 results
|